Time,TemperatureF,DewpointF,PressureIn,WindDirection,WindDirectionDegrees,WindSpeedMPH,WindSpeedGustMPH,Humidity,HourlyPrecipIn,Conditions,Clouds,dailyrainin,SolarRadiationWatts/m^2,SoftwareType,DateUTC
2013-01-27 00:24:00,56.0,54.0,30.22,NW,323,0.0,-999.0,94,-99.99,,,0.00,0,weatherlink.com 1.10,2013-01-27 05:24:00,
2013-01-27 00:39:00,55.7,54.0,30.22,NW,323,0.0,-999.0,94,-99.99,,,0.00,0,weatherlink.com 1.10,2013-01-27 05:39:00,
2013-01-27 00:54:00,55.4,54.0,30.23,NW,323,0.0,-999.0,94,-99.99,,,0.00,0,weatherlink.com 1.10,2013-01-27 05:54:00,
2013-01-27 01:09:00,55.0,53.0,30.23,NW,323,0.0,-999.0,94,-99.99,,,0.00,0,weatherlink.com 1.10,2013-01-27 06:09:00,
2013-01-27 01:24:00,54.5,53.0,30.23,NW,323,0.0,-999.0,94,-99.99,,,0.00,0,weatherlink.com 1.10,2013-01-27 06:24:00,
2013-01-27 01:40:00,54.1,53.0,30.23,NW,323,0.0,-999.0,94,-99.99,,,0.00,0,weatherlink.com 1.10,2013-01-27 06:40:00,
2013-01-27 01:54:00,53.9,53.0,30.23,NW,323,0.0,-999.0,95,-99.99,,,0.00,0,weatherlink.com 1.10,2013-01-27 06:54:00,
2013-01-27 02:24:00,53.4,52.0,30.23,NW,323,0.0,-999.0,95,-99.99,,,0.00,0,weatherlink.com 1.10,2013-01-27 07:24:00,
2013-01-27 02:39:00,53.6,52.0,30.23,NW,323,0.0,-999.0,95,-99.99,,,0.00,0,weatherlink.com 1.10,2013-01-27 07:39:00,
2013-01-27 02:54:00,53.6,52.0,30.22,NW,323,0.0,-999.0,95,-99.99,,,0.00,0,weatherlink.com 1.10,2013-01-27 07:54:00,
2013-01-27 03:09:00,53.5,52.0,30.23,NW,323,0.0,-999.0,95,-99.99,,,0.00,0,weatherlink.com 1.10,2013-01-27 08:09:00,
2013-01-27 03:25:00,53.2,52.0,30.23,NW,323,0.0,-999.0,95,-99.99,,,0.00,0,weatherlink.com 1.10,2013-01-27 08:25:00,
2013-01-27 03:39:00,52.6,51.0,30.23,NW,323,0.0,-999.0,95,-99.99,,,0.00,0,weatherlink.com 1.10,2013-01-27 08:39:00,
2013-01-27 03:54:00,52.7,51.0,30.23,NW,323,0.0,-999.0,95,-99.99,,,0.00,0,weatherlink.com 1.10,2013-01-27 08:54:00,
2013-01-27 04:09:00,53.1,52.0,30.22,NW,323,0.0,-999.0,96,-99.99,,,0.00,0,weatherlink.com 1.10,2013-01-27 09:09:00,
2013-01-27 04:24:00,53.5,52.0,30.22,NW,323,0.0,-999.0,96,-99.99,,,0.00,0,weatherlink.com 1.10,2013-01-27 09:24:00,
2013-01-27 04:40:00,54.1,53.0,30.22,NW,323,0.0,-999.0,96,-99.99,,,0.00,0,weatherlink.com 1.10,2013-01-27 09:40:00,
2013-01-27 04:54:00,54.2,53.0,30.22,NW,323,0.0,-999.0,96,-99.99,,,0.00,0,weatherlink.com 1.10,2013-01-27 09:54:00,
2013-01-27 05:09:00,53.8,53.0,30.23,NW,323,0.0,-999.0,96,-99.99,,,0.00,0,weatherlink.com 1.10,2013-01-27 10:09:00,
2013-01-27 05:24:00,53.4,52.0,30.23,NW,323,0.0,-999.0,96,-99.99,,,0.00,0,weatherlink.com 1.10,2013-01-27 10:24:00,
2013-01-27 05:39:00,53.2,52.0,30.23,NW,323,0.0,-999.0,96,-99.99,,,0.00,0,weatherlink.com 1.10,2013-01-27 10:39:00,
2013-01-27 05:55:00,53.2,52.0,30.24,NW,323,0.0,-999.0,96,-99.99,,,0.00,0,weatherlink.com 1.10,2013-01-27 10:55:00,
2013-01-27 06:10:00,53.3,52.0,30.25,NW,323,0.0,-999.0,96,-99.99,,,0.00,0,weatherlink.com 1.10,2013-01-27 11:10:00,
2013-01-27 06:25:00,54.1,53.0,30.25,NW,323,0.0,-999.0,97,-99.99,,,0.00,0,weatherlink.com 1.10,2013-01-27 11:25:00,
2013-01-27 06:40:00,54.7,54.0,30.25,NW,323,0.0,-999.0,97,-99.99,,,0.00,0,weatherlink.com 1.10,2013-01-27 11:40:00,
2013-01-27 06:55:00,54.3,53.0,30.26,NW,323,0.0,-999.0,96,-99.99,,,0.00,0,weatherlink.com 1.10,2013-01-27 11:55:00,
2013-01-27 07:10:00,53.9,53.0,30.26,NW,323,0.0,-999.0,96,-99.99,,,0.01,0,weatherlink.com 1.10,2013-01-27 12:10:00,
2013-01-27 07:25:00,53.3,52.0,30.26,NW,323,0.0,-999.0,96,-99.99,,,0.01,5,weatherlink.com 1.10,2013-01-27 12:25:00,
2013-01-27 07:40:00,53.2,52.0,30.26,NW,323,0.0,-999.0,96,-99.99,,,0.01,19,weatherlink.com 1.10,2013-01-27 12:40:00,
2013-01-27 07:55:00,53.9,53.0,30.26,NW,323,0.0,-999.0,97,-99.99,,,0.01,69,weatherlink.com 1.10,2013-01-27 12:55:00,
2013-01-27 08:10:00,55.9,55.0,30.27,NW,323,0.0,-999.0,97,-99.99,,,0.01,120,weatherlink.com 1.10,2013-01-27 13:10:00,
2013-01-27 08:25:00,58.4,58.0,30.27,NW,323,0.0,-999.0,98,-99.99,,,0.01,176,weatherlink.com 1.10,2013-01-27 13:25:00,
2013-01-27 08:40:00,59.7,59.0,30.27,NNE,25,0.0,-999.0,97,-99.99,,,0.01,229,weatherlink.com 1.10,2013-01-27 13:40:00,
2013-01-27 08:55:00,60.8,60.0,30.28,NE,38,2.0,-999.0,97,-99.99,,,0.01,283,weatherlink.com 1.10,2013-01-27 13:55:00,
2013-01-27 09:11:00,61.8,60.0,30.28,NE,42,3.0,-999.0,95,-99.99,,,0.01,336,weatherlink.com 1.10,2013-01-27 14:11:00,
2013-01-27 09:26:00,63.3,61.0,30.29,ENE,71,1.0,-999.0,92,-99.99,,,0.01,380,weatherlink.com 1.10,2013-01-27 14:26:00,
2013-01-27 09:40:00,64.4,61.0,30.29,NE,53,3.0,-999.0,88,-99.99,,,0.01,427,weatherlink.com 1.10,2013-01-27 14:40:00,
2013-01-27 09:55:00,65.6,60.0,30.29,NE,39,3.0,-999.0,83,-99.99,,,0.01,469,weatherlink.com 1.10,2013-01-27 14:55:00,
2013-01-27 10:11:00,66.0,60.0,30.29,ENE,61,0.0,-999.0,81,-99.99,,,0.01,506,weatherlink.com 1.10,2013-01-27 15:11:00,
2013-01-27 10:25:00,67.0,61.0,30.30,ENE,76,1.0,-999.0,80,-99.99,,,0.01,543,weatherlink.com 1.10,2013-01-27 15:25:00,
2013-01-27 10:41:00,67.5,60.0,30.30,NNW,348,5.0,-999.0,78,-99.99,,,0.01,580,weatherlink.com 1.10,2013-01-27 15:41:00,
2013-01-27 10:56:00,68.1,60.0,30.30,North,5,4.0,-999.0,76,-99.99,,,0.01,610,weatherlink.com 1.10,2013-01-27 15:56:00,
2013-01-27 11:11:00,68.5,60.0,30.30,SE,126,4.0,-999.0,74,-99.99,,,0.01,636,weatherlink.com 1.10,2013-01-27 16:11:00,
2013-01-27 11:26:00,69.3,60.0,30.29,ENE,59,3.0,-999.0,73,-99.99,,,0.01,661,weatherlink.com 1.10,2013-01-27 16:26:00,
2013-01-27 11:41:00,70.3,60.0,30.29,East,95,2.0,-999.0,71,-99.99,,,0.01,680,weatherlink.com 1.10,2013-01-27 16:41:00,
2013-01-27 11:56:00,70.6,59.0,30.28,ENE,67,5.0,-999.0,67,-99.99,,,0.01,700,weatherlink.com 1.10,2013-01-27 16:56:00,
2013-01-27 12:11:00,71.4,59.0,30.27,ENE,57,2.0,-999.0,65,-99.99,,,0.01,710,weatherlink.com 1.10,2013-01-27 17:11:00,
2013-01-27 12:26:00,72.1,58.0,30.27,East,94,0.0,-999.0,61,-99.99,,,0.01,717,weatherlink.com 1.10,2013-01-27 17:26:00,
2013-01-27 12:41:00,72.6,57.0,30.26,NNE,33,4.0,-999.0,59,-99.99,,,0.01,721,weatherlink.com 1.10,2013-01-27 17:41:00,
2013-01-27 12:56:00,73.3,57.0,30.25,NE,56,2.0,-999.0,57,-99.99,,,0.01,721,weatherlink.com 1.10,2013-01-27 17:56:00,
2013-01-27 13:11:00,74.0,57.0,30.25,NNE,30,3.0,-999.0,56,-99.99,,,0.01,712,weatherlink.com 1.10,2013-01-27 18:11:00,
2013-01-27 13:26:00,74.4,58.0,30.23,NNE,23,1.0,-999.0,56,-99.99,,,0.01,701,weatherlink.com 1.10,2013-01-27 18:26:00,
2013-01-27 13:41:00,74.5,57.0,30.23,ESE,119,2.0,-999.0,55,-99.99,,,0.01,687,weatherlink.com 1.10,2013-01-27 18:41:00,
2013-01-27 13:56:00,74.8,56.0,30.22,SE,140,1.0,-999.0,53,-99.99,,,0.01,668,weatherlink.com 1.10,2013-01-27 18:56:00,
2013-01-27 14:12:00,74.9,56.0,30.22,ESE,119,0.0,-999.0,53,-99.99,,,0.01,643,weatherlink.com 1.10,2013-01-27 19:12:00,
2013-01-27 14:26:00,75.7,56.0,30.22,NE,40,2.0,-999.0,50,-99.99,,,0.01,615,weatherlink.com 1.10,2013-01-27 19:26:00,
2013-01-27 14:42:00,75.8,56.0,30.21,ESE,115,2.0,-999.0,50,-99.99,,,0.01,587,weatherlink.com 1.10,2013-01-27 19:42:00,
2013-01-27 14:57:00,76.4,55.0,30.21,NE,40,1.0,-999.0,48,-99.99,,,0.01,554,weatherlink.com 1.10,2013-01-27 19:57:00,
2013-01-27 15:11:00,76.4,56.0,30.20,NNW,348,2.0,-999.0,49,-99.99,,,0.01,512,weatherlink.com 1.10,2013-01-27 20:11:00,
2013-01-27 15:26:00,76.4,55.0,30.20,NE,41,2.0,-999.0,48,-99.99,,,0.01,461,weatherlink.com 1.10,2013-01-27 20:26:00,
2013-01-27 15:41:00,76.7,55.0,30.20,ENE,78,2.0,-999.0,47,-99.99,,,0.01,118,weatherlink.com 1.10,2013-01-27 20:41:00,
2013-01-27 15:56:00,76.7,54.0,30.20,East,80,1.0,-999.0,46,-99.99,,,0.01,195,weatherlink.com 1.10,2013-01-27 20:56:00,
2013-01-27 16:11:00,76.6,55.0,30.20,ENE,67,3.0,-999.0,47,-99.99,,,0.01,179,weatherlink.com 1.10,2013-01-27 21:11:00,
2013-01-27 16:26:00,76.4,55.0,30.20,East,81,3.0,-999.0,47,-99.99,,,0.01,188,weatherlink.com 1.10,2013-01-27 21:26:00,
2013-01-27 16:41:00,76.4,55.0,30.20,ESE,110,4.0,-999.0,47,-99.99,,,0.01,76,weatherlink.com 1.10,2013-01-27 21:41:00,
2013-01-27 16:56:00,76.2,55.0,30.21,East,86,1.0,-999.0,48,-99.99,,,0.01,69,weatherlink.com 1.10,2013-01-27 21:56:00,
2013-01-27 17:11:00,76.0,56.0,30.21,NE,51,3.0,-999.0,50,-99.99,,,0.01,51,weatherlink.com 1.10,2013-01-27 22:11:00,
2013-01-27 17:26:00,75.6,56.0,30.22,ENE,74,2.0,-999.0,51,-99.99,,,0.01,26,weatherlink.com 1.10,2013-01-27 22:26:00,
2013-01-27 17:41:00,74.6,57.0,30.22,ESE,107,1.0,-999.0,55,-99.99,,,0.01,18,weatherlink.com 1.10,2013-01-27 22:41:00,
2013-01-27 17:56:00,73.3,57.0,30.23,East,86,0.0,-999.0,58,-99.99,,,0.01,9,weatherlink.com 1.10,2013-01-27 22:56:00,
2013-01-27 18:11:00,72.4,57.0,30.23,East,87,2.0,-999.0,58,-99.99,,,0.01,0,weatherlink.com 1.10,2013-01-27 23:11:00,
2013-01-27 18:27:00,71.8,56.0,30.23,ESE,109,0.0,-999.0,57,-99.99,,,0.01,0,weatherlink.com 1.10,2013-01-27 23:27:00,
2013-01-27 18:42:00,71.6,55.0,30.24,ESE,107,1.0,-999.0,57,-99.99,,,0.01,0,weatherlink.com 1.10,2013-01-27 23:42:00,
2013-01-27 18:57:00,71.6,55.0,30.24,East,90,0.0,-999.0,57,-99.99,,,0.01,0,weatherlink.com 1.10,2013-01-27 23:57:00,
2013-01-27 19:12:00,71.4,56.0,30.25,East,100,5.0,-999.0,58,-99.99,,,0.01,0,weatherlink.com 1.10,2013-01-28 00:12:00,
2013-01-27 19:27:00,71.3,56.0,30.25,SE,127,2.0,-999.0,58,-99.99,,,0.01,0,weatherlink.com 1.10,2013-01-28 00:27:00,
2013-01-27 19:42:00,71.5,55.0,30.25,ESE,107,2.0,-999.0,57,-99.99,,,0.01,0,weatherlink.com 1.10,2013-01-28 00:42:00,
2013-01-27 19:57:00,71.1,56.0,30.26,ESE,102,2.0,-999.0,60,-99.99,,,0.01,0,weatherlink.com 1.10,2013-01-28 00:57:00,
2013-01-27 20:12:00,70.4,56.0,30.26,East,80,1.0,-999.0,61,-99.99,,,0.01,0,weatherlink.com 1.10,2013-01-28 01:12:00,
2013-01-27 20:27:00,70.3,57.0,30.26,East,90,0.0,-999.0,62,-99.99,,,0.01,0,weatherlink.com 1.10,2013-01-28 01:27:00,
2013-01-27 20:42:00,69.9,57.0,30.26,ESE,119,1.0,-999.0,64,-99.99,,,0.01,0,weatherlink.com 1.10,2013-01-28 01:42:00,
2013-01-27 20:57:00,69.2,58.0,30.27,ENE,64,3.0,-999.0,67,-99.99,,,0.01,0,weatherlink.com 1.10,2013-01-28 01:57:00,
2013-01-27 21:12:00,68.6,58.0,30.27,East,94,6.0,-999.0,70,-99.99,,,0.01,0,weatherlink.com 1.10,2013-01-28 02:12:00,
2013-01-27 21:27:00,68.0,59.0,30.27,ESE,117,1.0,-999.0,73,-99.99,,,0.01,0,weatherlink.com 1.10,2013-01-28 02:27:00,
2013-01-27 21:42:00,67.4,59.0,30.27,ESE,122,1.0,-999.0,74,-99.99,,,0.01,0,weatherlink.com 1.10,2013-01-28 02:42:00,
2013-01-27 21:57:00,66.8,59.0,30.27,ESE,123,5.0,-999.0,76,-99.99,,,0.01,0,weatherlink.com 1.10,2013-01-28 02:57:00,
2013-01-27 22:12:00,66.5,59.0,30.27,East,90,2.0,-999.0,77,-99.99,,,0.01,0,weatherlink.com 1.10,2013-01-28 03:12:00,
2013-01-27 22:27:00,66.3,59.0,30.27,East,81,1.0,-999.0,78,-99.99,,,0.01,0,weatherlink.com 1.10,2013-01-28 03:27:00,
2013-01-27 22:42:00,66.1,59.0,30.28,East,94,0.0,-999.0,79,-99.99,,,0.01,0,weatherlink.com 1.10,2013-01-28 03:42:00,
2013-01-27 22:57:00,65.7,59.0,30.28,East,95,1.0,-999.0,79,-99.99,,,0.01,0,weatherlink.com 1.10,2013-01-28 03:57:00,
2013-01-27 23:12:00,65.4,59.0,30.27,ENE,65,3.0,-999.0,80,-99.99,,,0.01,0,weatherlink.com 1.10,2013-01-28 04:12:00,
2013-01-27 23:27:00,65.1,59.0,30.27,ENE,77,0.0,-999.0,81,-99.99,,,0.01,0,weatherlink.com 1.10,2013-01-28 04:27:00,
2013-01-27 23:42:00,64.7,59.0,30.26,ENE,77,0.0,-999.0,82,-99.99,,,0.01,0,weatherlink.com 1.10,2013-01-28 04:42:00,
2013-01-27 23:57:00,64.1,59.0,30.26,ENE,77,1.0,-999.0,83,-99.99,,,0.01,0,weatherlink.com 1.10,2013-01-28 04:57:00,